Date,TemperatureHighF,TemperatureAvgF,TemperatureLowF,DewpointHighF,DewpointAvgF,DewpointLowF,HumidityHigh,HumidityAvg,HumidityLow,PressureMaxIn,PressureMinIn,WindSpeedMaxMPH,WindSpeedAvgMPH,GustSpeedMaxMPH,PrecipitationSumIn
2013-2-1,9,5,0,6,-1,-5,87,75,62,30.28,30.08,10,3,14,0.00
2013-2-2,15,10,4,9,5,0,90,79,64,30.14,30.00,8,2,11,0.00
2013-2-3,21,14,4,13,8,0,88,79,61,30.02,29.92,11,2,16,0.00
2013-2-4,20,16,9,16,11,3,91,83,70,30.00,29.89,8,2,10,0.00
2013-2-5,28,20,4,24,16,1,99,85,74,30.07,29.75,9,2,15,0.00
2013-2-6,34,24,7,31,18,4,93,81,66,30.20,30.06,9,1,10,0.11
2013-2-7,34,33,24,33,31,23,96,93,86,30.08,29.85,7,2,10,0.01
2013-2-8,26,22,12,23,20,10,95,91,87,30.36,29.96,8,1,11,0.00
2013-2-9,30,20,7,27,18,5,95,91,86,30.37,30.06,9,2,13,0.00
2013-2-10,45,35,24,43,34,23,97,94,81,30.06,29.37,14,5,20,0.97
2013-2-11,42,36,33,36,31,29,87,83,77,29.48,29.36,18,6,26,0.00
2013-2-12,31,24,21,21,20,19,92,84,67,29.93,29.84,5,1,11,0.00
2013-2-13,42,31,20,32,26,18,95,84,63,29.83,29.65,11,1,11,0.00
2013-2-14,37,34,30,35,30,24,94,85,77,29.92,29.54,14,2,17,0.04
2013-2-15,30,22,15,26,14,8,92,69,49,30.14,29.92,9,2,15,0.00
2013-2-16,19,13,8,8,4,1,83,68,51,30.16,30.09,10,2,13,0.00
2013-2-17,28,17,4,17,6,0,86,63,41,30.19,29.96,12,2,18,0.00
2013-2-18,48,36,28,42,30,17,95,76,62,29.96,29.35,16,5,19,0.55
2013-2-19,33,17,10,32,12,2,99,82,69,30.11,29.41,15,5,27,0.00
2013-2-20,22,15,7,12,8,1,85,73,63,30.34,30.12,12,2,14,0.00
2013-2-21,28,22,15,25,18,10,92,85,76,30.39,30.05,15,5,19,0.00
2013-2-22,31,29,26,30,27,23,95,93,84,30.05,29.74,15,4,20,0.01
2013-2-23,31,26,18,26,22,15,92,85,73,29.88,29.79,6,2,13,0.02
2013-2-24,40,28,17,27,22,15,93,80,57,30.10,29.88,6,1,8,0.02
2013-2-25,42,30,17,28,24,15,94,80,55,30.13,30.00,8,1,10,0.01
2013-2-26,35,33,31,32,30,27,97,87,76,30.00,29.54,22,9,30,0.00
2013-2-27,33,33,32,32,32,31,97,97,97,29.69,29.51,11,3,15,0.12
2013-2-28,33,31,26,32,29,22,97,91,84,30.06,29.69,13,4,16,0.11